RYR2LW EGSS-LIPY

Flight info

Callsign RYR2LW
Flight time 1h 59m
Altitude 39000
Route CLN M84 KONAN UL607 KOK DCT RITAX DCT KRH DCT UTABA DCT BEMKI DCT ELMEM DCT GIRIS DCT SUMIR DCT CHI/N0340F190 L612 LANLI
Aircraft B38M/M-SDE1FGHILORVWXY/HB1

Departure

Time 2026-04-26 10:13
Airport London Stansted Airport (EGSS)

Arrival

Time 2026-04-26 12:12
Airport Marche Airport (LIPY)
Time Latitude Longitude Altitude Speed Heading
2026-04-26 09:53 51.89217 0.25658 355 ft 0 kts 222°
2026-04-26 09:59 51.89223 0.25668 364 ft 3 kts 222°
2026-04-26 09:59 51.89238 0.25689 364 ft 3 kts 222°
2026-04-26 09:59 51.89253 0.25711 364 ft 3 kts 225°
2026-04-26 10:00 51.89264 0.25734 360 ft 3 kts 260°
2026-04-26 10:00 51.89261 0.25754 361 ft 2 kts 311°
2026-04-26 10:00 51.89253 0.25768 359 ft 3 kts 313°
2026-04-26 10:00 51.89246 0.25782 361 ft 0 kts 313°
2026-04-26 10:04 51.89246 0.25781 361 ft 0 kts 313°
2026-04-26 10:04 51.89261 0.25753 361 ft 6 kts 308°
2026-04-26 10:04 51.89287 0.25707 358 ft 0 kts 312°
2026-04-26 10:04 51.89314 0.25662 357 ft 11 kts 314°
2026-04-26 10:05 51.89349 0.25547 358 ft 9 kts 243°
2026-04-26 10:05 51.89301 0.25465 355 ft 11 kts 223°
2026-04-26 10:05 51.89240 0.25373 361 ft 13 kts 223°
2026-04-26 10:05 51.89167 0.25264 356 ft 16 kts 223°
2026-04-26 10:06 51.89075 0.25126 362 ft 20 kts 223°
2026-04-26 10:06 51.88964 0.24959 357 ft 23 kts 223°
2026-04-26 10:06 51.88858 0.24801 355 ft 21 kts 223°
2026-04-26 10:06 51.88751 0.24639 353 ft 21 kts 223°
2026-04-26 10:07 51.88633 0.24463 353 ft 24 kts 223°
2026-04-26 10:07 51.88508 0.24276 352 ft 25 kts 223°
2026-04-26 10:07 51.88388 0.24095 347 ft 21 kts 223°
2026-04-26 10:07 51.88282 0.23934 352 ft 19 kts 223°
2026-04-26 10:08 51.88190 0.23798 347 ft 19 kts 223°
2026-04-26 10:08 51.88087 0.23645 349 ft 21 kts 223°
2026-04-26 10:08 51.87979 0.23483 349 ft 22 kts 223°
2026-04-26 10:08 51.87874 0.23325 350 ft 18 kts 223°
2026-04-26 10:09 51.87779 0.23181 348 ft 19 kts 223°
2026-04-26 10:09 51.87732 0.23051 342 ft 12 kts 287°
2026-04-26 10:09 51.87781 0.22935 348 ft 12 kts 284°
2026-04-26 10:09 51.87755 0.22846 346 ft 10 kts 221°
2026-04-26 10:10 51.87691 0.22749 338 ft 15 kts 224°
2026-04-26 10:10 51.87610 0.22630 338 ft 17 kts 221°
2026-04-26 10:10 51.87525 0.22498 332 ft 15 kts 233°
2026-04-26 10:10 51.87559 0.22356 328 ft 17 kts 315°
2026-04-26 10:11 51.87671 0.22265 326 ft 19 kts 12°
2026-04-26 10:11 51.87773 0.22386 333 ft 17 kts 43°
2026-04-26 10:11 51.87784 0.22403 332 ft 0 kts 41°
2026-04-26 10:12 51.87788 0.22409 332 ft 5 kts 41°
2026-04-26 10:12 51.87980 0.22699 334 ft 80 kts 43°
2026-04-26 10:13 51.88589 0.23612 349 ft 155 kts 43°
2026-04-26 10:13 51.89453 0.24899 532 ft 185 kts 43°
2026-04-26 10:13 51.90495 0.26403 1037 ft 213 kts 45°
2026-04-26 10:13 51.91351 0.28410 1695 ft 223 kts 74°
2026-04-26 10:14 51.91398 0.30866 2354 ft 221 kts 104°
2026-04-26 10:14 51.90879 0.33258 2546 ft 228 kts 111°
2026-04-26 10:14 51.90277 0.35644 2660 ft 230 kts 113°
2026-04-26 10:14 51.89650 0.38001 2859 ft 226 kts 114°
2026-04-26 10:15 51.89008 0.40336 2941 ft 231 kts 114°
2026-04-26 10:15 51.88333 0.42731 2923 ft 240 kts 115°
2026-04-26 10:15 51.87624 0.45218 3764 ft 251 kts 115°
2026-04-26 10:15 51.86872 0.47825 4000 ft 257 kts 115°
2026-04-26 10:16 51.86114 0.50436 3994 ft 256 kts 114°
2026-04-26 10:16 51.85352 0.53042 3996 ft 256 kts 114°
2026-04-26 10:16 51.84590 0.55638 3994 ft 256 kts 115°
2026-04-26 10:16 51.83825 0.58243 3996 ft 257 kts 114°
2026-04-26 10:17 51.83147 0.60932 4434 ft 259 kts 101°
2026-04-26 10:17 51.83048 0.63844 4821 ft 261 kts 88°
2026-04-26 10:17 51.83123 0.66774 4932 ft 260 kts 87°
2026-04-26 10:17 51.83214 0.69694 4979 ft 261 kts 87°
2026-04-26 10:18 51.83312 0.72638 5045 ft 265 kts 87°
2026-04-26 10:18 51.83417 0.75616 5677 ft 266 kts 86°
2026-04-26 10:18 51.83525 0.78577 5958 ft 269 kts 86°
2026-04-26 10:18 51.83638 0.81598 5999 ft 269 kts 86°
2026-04-26 10:19 51.83752 0.84623 5997 ft 270 kts 86°
2026-04-26 10:19 51.83866 0.87649 6002 ft 269 kts 86°
2026-04-26 10:19 51.83980 0.90670 5994 ft 269 kts 86°
2026-04-26 10:19 51.84092 0.93695 5995 ft 270 kts 86°
2026-04-26 10:20 51.84204 0.96720 5995 ft 270 kts 86°
2026-04-26 10:20 51.84279 0.98767 6003 ft 270 kts 86°
2026-04-26 10:20 51.84426 1.02782 6001 ft 270 kts 86°
2026-04-26 10:20 51.84536 1.05818 6004 ft 271 kts 86°
2026-04-26 10:21 51.84645 1.08858 6000 ft 271 kts 86°
2026-04-26 10:21 51.84711 1.11903 6047 ft 274 kts 95°
2026-04-26 10:21 51.84058 1.14747 6745 ft 271 kts 127°
2026-04-26 10:21 51.82690 1.16845 7685 ft 276 kts 145°
2026-04-26 10:22 51.81091 1.18628 8577 ft 281 kts 146°
2026-04-26 10:22 51.79466 1.20413 9556 ft 284 kts 146°
2026-04-26 10:22 51.77814 1.22206 10463 ft 288 kts 147°
2026-04-26 10:22 51.76105 1.24042 11045 ft 304 kts 147°
2026-04-26 10:23 51.74281 1.25989 11471 ft 323 kts 147°
2026-04-26 10:23 51.72370 1.28021 12031 ft 336 kts 147°
2026-04-26 10:23 51.70407 1.30104 12867 ft 338 kts 148°
2026-04-26 10:23 51.68421 1.32205 13588 ft 346 kts 148°
2026-04-26 10:24 51.66397 1.34346 14352 ft 349 kts 149°
2026-04-26 10:24 51.64183 1.35922 14996 ft 350 kts 170°
2026-04-26 10:24 51.62588 1.36229 15482 ft 349 kts 180°
2026-04-26 10:24 51.60140 1.36413 16078 ft 356 kts 179°
2026-04-26 10:25 51.57657 1.36598 16770 ft 358 kts 179°
2026-04-26 10:25 51.55154 1.36767 17403 ft 363 kts 180°
2026-04-26 10:25 51.52618 1.36925 18059 ft 366 kts 180°
2026-04-26 10:25 51.50061 1.37078 18682 ft 370 kts 180°
2026-04-26 10:26 51.47474 1.37232 19219 ft 374 kts 179°
2026-04-26 10:26 51.44900 1.37952 19752 ft 380 kts 161°
2026-04-26 10:26 51.42597 1.40032 20320 ft 385 kts 142°
2026-04-26 10:26 51.40754 1.43194 20791 ft 391 kts 128°
2026-04-26 10:27 51.39075 1.46650 21283 ft 396 kts 129°
2026-04-26 10:27 51.37361 1.50150 21719 ft 401 kts 129°
2026-04-26 10:27 51.35647 1.53678 22262 ft 404 kts 129°
2026-04-26 10:27 51.33917 1.57250 22731 ft 408 kts 129°
2026-04-26 10:28 51.32175 1.60848 23241 ft 411 kts 129°
2026-04-26 10:28 51.30422 1.64469 23729 ft 414 kts 129°
2026-04-26 10:28 51.28651 1.68119 24153 ft 417 kts 129°
2026-04-26 10:28 51.26869 1.71787 24552 ft 420 kts 129°
2026-04-26 10:29 51.25072 1.75481 24949 ft 423 kts 129°
2026-04-26 10:29 51.23264 1.79193 25341 ft 425 kts 129°
2026-04-26 10:29 51.21440 1.82931 25733 ft 428 kts 129°
2026-04-26 10:29 51.19608 1.86682 26104 ft 431 kts 129°
2026-04-26 10:30 51.17760 1.90459 26480 ft 433 kts 128°
2026-04-26 10:30 51.15899 1.94261 26818 ft 437 kts 128°
2026-04-26 10:30 51.14163 1.98252 27115 ft 441 kts 116°
2026-04-26 10:30 51.13159 2.02824 27578 ft 437 kts 99°
2026-04-26 10:31 51.12778 2.07632 27871 ft 441 kts 94°
2026-04-26 10:31 51.12466 2.12517 28128 ft 445 kts 94°
2026-04-26 10:31 51.12173 2.17421 28546 ft 446 kts 94°
2026-04-26 10:31 51.11892 2.22353 28844 ft 449 kts 93°
2026-04-26 10:32 51.11616 2.27312 29206 ft 451 kts 93°
2026-04-26 10:32 51.11341 2.32295 29537 ft 453 kts 93°
2026-04-26 10:32 51.11063 2.37299 29871 ft 455 kts 93°
2026-04-26 10:32 51.10782 2.42333 30188 ft 458 kts 93°
2026-04-26 10:33 51.10496 2.47392 30472 ft 460 kts 93°
2026-04-26 10:33 51.10208 2.52473 30746 ft 462 kts 93°
2026-04-26 10:33 51.09916 2.57572 31016 ft 464 kts 93°
2026-04-26 10:33 51.09604 2.62695 31282 ft 466 kts 96°
2026-04-26 10:34 51.08784 2.67692 31499 ft 471 kts 115°
2026-04-26 10:34 51.07259 2.72271 31942 ft 468 kts 117°
2026-04-26 10:34 51.04438 2.81734 32255 ft 476 kts 114°
2026-04-26 10:35 51.03009 2.86486 32541 ft 478 kts 115°
2026-04-26 10:35 51.01562 2.91239 32861 ft 477 kts 115°
2026-04-26 10:35 51.00112 2.95977 33203 ft 477 kts 115°
2026-04-26 10:35 50.98662 3.00711 33518 ft 477 kts 115°
2026-04-26 10:36 50.97231 3.05374 33837 ft 476 kts 115°
2026-04-26 10:36 50.95780 3.10094 34153 ft 476 kts 115°
2026-04-26 10:36 50.94326 3.14813 34441 ft 476 kts 115°
2026-04-26 10:36 50.92873 3.19521 34701 ft 475 kts 115°
2026-04-26 10:37 50.91420 3.24221 34964 ft 475 kts 115°
2026-04-26 10:37 50.89966 3.28915 35229 ft 474 kts 115°
2026-04-26 10:37 50.88514 3.33595 35512 ft 473 kts 115°
2026-04-26 10:37 50.87064 3.38258 35797 ft 471 kts 115°
2026-04-26 10:38 50.85615 3.42908 36032 ft 471 kts 115°
2026-04-26 10:38 50.84165 3.47550 36270 ft 470 kts 116°
2026-04-26 10:38 50.82716 3.52183 36483 ft 470 kts 116°
2026-04-26 10:38 50.81264 3.56815 36692 ft 469 kts 116°
2026-04-26 10:39 50.79815 3.61433 36900 ft 469 kts 116°
2026-04-26 10:39 50.78364 3.66046 37101 ft 468 kts 116°
2026-04-26 10:39 50.76912 3.70652 37300 ft 468 kts 116°
2026-04-26 10:39 50.75461 3.75248 37495 ft 468 kts 116°
2026-04-26 10:40 50.74009 3.79839 37682 ft 467 kts 116°
2026-04-26 10:40 50.72558 3.84418 37866 ft 466 kts 116°
2026-04-26 10:40 50.71105 3.88994 38028 ft 466 kts 116°
2026-04-26 10:40 50.69654 3.93559 38186 ft 466 kts 116°
2026-04-26 10:41 50.68200 3.98119 38336 ft 465 kts 116°
2026-04-26 10:41 50.66745 4.02674 38481 ft 465 kts 116°
2026-04-26 10:41 50.65291 4.07223 38621 ft 465 kts 117°
2026-04-26 10:41 50.63836 4.11763 38754 ft 464 kts 117°
2026-04-26 10:42 50.62379 4.16300 38882 ft 464 kts 117°
2026-04-26 10:42 50.60921 4.20836 39003 ft 464 kts 117°
2026-04-26 10:42 50.58003 4.29885 39169 ft 463 kts 117°
2026-04-26 10:43 50.56545 4.34394 39281 ft 462 kts 117°
2026-04-26 10:43 50.55086 4.38895 39328 ft 462 kts 117°
2026-04-26 10:43 50.52156 4.47916 39323 ft 464 kts 117°
2026-04-26 10:44 50.49214 4.56940 39321 ft 464 kts 117°
2026-04-26 10:44 50.46266 4.65952 39327 ft 464 kts 117°
2026-04-26 10:45 50.43316 4.74936 39303 ft 462 kts 117°
2026-04-26 10:45 50.40363 4.83897 39298 ft 463 kts 117°
2026-04-26 10:46 50.37399 4.92857 39296 ft 463 kts 117°
2026-04-26 10:46 50.34429 5.01806 39297 ft 463 kts 117°
2026-04-26 10:47 50.31454 5.10739 39299 ft 463 kts 118°
2026-04-26 10:47 50.28477 5.19645 39288 ft 462 kts 118°
2026-04-26 10:48 50.25494 5.28539 39289 ft 462 kts 118°
2026-04-26 10:48 50.22524 5.37360 39283 ft 462 kts 118°
2026-04-26 10:49 50.19525 5.46236 39268 ft 462 kts 118°
2026-04-26 10:49 50.16523 5.55096 39270 ft 462 kts 118°
2026-04-26 10:50 50.14011 5.62492 39266 ft 460 kts 118°
2026-04-26 10:50 50.10518 5.72738 39267 ft 461 kts 118°
2026-04-26 10:51 50.05843 5.85800 39263 ft 460 kts 121°
2026-04-26 10:52 50.02623 5.94415 39243 ft 460 kts 121°
2026-04-26 10:52 49.99415 6.03023 39239 ft 460 kts 121°
2026-04-26 10:53 49.96205 6.11609 39261 ft 460 kts 121°
2026-04-26 10:53 49.92987 6.20189 39249 ft 460 kts 121°
2026-04-26 10:54 49.88147 6.33041 39258 ft 460 kts 121°
2026-04-26 10:54 49.84915 6.41588 39249 ft 460 kts 121°
2026-04-26 10:55 49.81677 6.50122 39246 ft 460 kts 121°
2026-04-26 10:55 49.78978 6.57214 39243 ft 460 kts 121°
2026-04-26 10:56 49.75179 6.67165 39258 ft 459 kts 121°
2026-04-26 10:56 49.71924 6.75662 39245 ft 459 kts 121°
2026-04-26 10:57 49.68658 6.84160 39232 ft 460 kts 122°
2026-04-26 10:57 49.65383 6.92651 39249 ft 461 kts 122°
2026-04-26 10:58 49.62099 7.01139 39240 ft 460 kts 122°
2026-04-26 10:58 49.58810 7.09613 39257 ft 461 kts 122°
2026-04-26 10:59 49.55513 7.18082 39248 ft 461 kts 122°
2026-04-26 10:59 49.52212 7.26532 39248 ft 460 kts 122°
2026-04-26 11:00 49.48912 7.34953 39257 ft 460 kts 122°
2026-04-26 11:00 49.45601 7.43373 39265 ft 460 kts 122°
2026-04-26 11:01 49.42288 7.51775 39262 ft 460 kts 122°
2026-04-26 11:01 49.38970 7.60160 39260 ft 459 kts 122°
2026-04-26 11:02 49.35648 7.68529 39261 ft 459 kts 122°
2026-04-26 11:02 49.32325 7.76876 39258 ft 459 kts 123°
2026-04-26 11:03 49.28995 7.85213 39262 ft 459 kts 123°
2026-04-26 11:03 49.25658 7.93540 39262 ft 459 kts 123°
2026-04-26 11:04 49.22316 8.01853 39263 ft 459 kts 123°
2026-04-26 11:04 49.18962 8.10172 39262 ft 460 kts 123°
2026-04-26 11:05 49.15600 8.18482 39258 ft 459 kts 123°
2026-04-26 11:05 49.12234 8.26780 39252 ft 459 kts 123°
2026-04-26 11:06 49.09432 8.33669 39240 ft 460 kts 123°
2026-04-26 11:06 49.05485 8.43347 39246 ft 460 kts 123°
2026-04-26 11:07 49.02105 8.51608 39242 ft 459 kts 123°
2026-04-26 11:07 48.98405 8.59394 39102 ft 452 kts 143°
2026-04-26 11:08 48.95922 8.62181 39352 ft 437 kts 146°
2026-04-26 11:08 48.93533 8.65093 39247 ft 445 kts 140°
2026-04-26 11:08 48.88799 8.71073 39302 ft 443 kts 143°
2026-04-26 11:09 48.83953 8.76949 39242 ft 447 kts 144°
2026-04-26 11:09 48.79063 8.82820 39237 ft 449 kts 144°
2026-04-26 11:10 48.74949 8.87748 39240 ft 452 kts 144°
2026-04-26 11:10 48.70035 8.93622 39239 ft 454 kts 144°
2026-04-26 11:11 48.65065 8.99545 39237 ft 455 kts 144°
2026-04-26 11:11 48.60089 9.05462 39235 ft 455 kts 144°
2026-04-26 11:12 48.55114 9.11361 39235 ft 455 kts 144°
2026-04-26 11:12 48.50140 9.17245 39226 ft 455 kts 144°
2026-04-26 11:13 48.45156 9.23126 39220 ft 455 kts 144°
2026-04-26 11:13 48.40173 9.28990 39225 ft 455 kts 144°
2026-04-26 11:14 48.35183 9.34847 39216 ft 455 kts 144°
2026-04-26 11:14 48.30197 9.40686 39218 ft 455 kts 144°
2026-04-26 11:15 48.25227 9.46564 39215 ft 455 kts 142°
2026-04-26 11:15 48.20350 9.52610 39220 ft 456 kts 142°
2026-04-26 11:16 48.15455 9.58625 39227 ft 455 kts 143°
2026-04-26 11:16 48.10560 9.64624 39229 ft 455 kts 143°
2026-04-26 11:17 48.05659 9.70616 39227 ft 455 kts 143°
2026-04-26 11:17 48.00757 9.76595 39222 ft 455 kts 143°
2026-04-26 11:18 47.95853 9.82560 39224 ft 455 kts 143°
2026-04-26 11:18 47.90936 9.88526 39224 ft 456 kts 143°
2026-04-26 11:19 47.86014 9.94483 39225 ft 456 kts 143°
2026-04-26 11:19 47.81090 10.00427 39214 ft 456 kts 143°
2026-04-26 11:20 47.76996 10.05359 39209 ft 455 kts 143°
2026-04-26 11:20 47.71262 10.12248 39212 ft 456 kts 143°
2026-04-26 11:21 47.66328 10.18160 39216 ft 456 kts 143°
2026-04-26 11:21 47.61382 10.24073 39215 ft 457 kts 143°
2026-04-26 11:22 47.56434 10.29959 39214 ft 456 kts 145°
2026-04-26 11:22 47.51194 10.35157 39294 ft 452 kts 149°
2026-04-26 11:23 47.45921 10.40294 39176 ft 453 kts 149°
2026-04-26 11:23 47.40653 10.45397 39214 ft 454 kts 149°
2026-04-26 11:24 47.35374 10.50502 39208 ft 454 kts 149°
2026-04-26 11:24 47.30084 10.55604 39199 ft 454 kts 149°
2026-04-26 11:25 47.27332 10.57842 39144 ft 449 kts 161°
2026-04-26 11:25 47.24451 10.59524 39284 ft 444 kts 160°
2026-04-26 11:25 47.18725 10.63112 39179 ft 449 kts 160°
2026-04-26 11:26 47.12958 10.66659 39211 ft 450 kts 160°
2026-04-26 11:26 47.07169 10.70200 39207 ft 450 kts 160°
2026-04-26 11:27 47.01387 10.73727 39159 ft 450 kts 160°
2026-04-26 11:27 46.95636 10.77230 39278 ft 448 kts 160°
2026-04-26 11:28 46.89854 10.80741 39196 ft 449 kts 160°
2026-04-26 11:28 46.84074 10.84244 39220 ft 451 kts 160°
2026-04-26 11:29 46.78286 10.87745 39237 ft 451 kts 159°
2026-04-26 11:29 46.75499 10.89885 39150 ft 454 kts 147°
2026-04-26 11:29 46.72914 10.92452 39314 ft 448 kts 149°
2026-04-26 11:30 46.70270 10.94903 39205 ft 452 kts 150°
2026-04-26 11:30 46.68513 10.96533 39198 ft 453 kts 150°
2026-04-26 11:30 46.62330 11.02293 39201 ft 455 kts 150°
2026-04-26 11:31 46.57026 11.07229 39213 ft 453 kts 150°
2026-04-26 11:31 46.51712 11.12164 39208 ft 453 kts 150°
2026-04-26 11:32 46.46385 11.17096 39174 ft 454 kts 150°
2026-04-26 11:32 46.41070 11.22008 39161 ft 454 kts 150°
2026-04-26 11:33 46.35750 11.26913 39221 ft 454 kts 150°
2026-04-26 11:33 46.30413 11.31822 39164 ft 453 kts 150°
2026-04-26 11:34 46.25044 11.36576 39154 ft 451 kts 155°
2026-04-26 11:34 46.19510 11.40870 39157 ft 453 kts 154°
2026-04-26 11:35 46.13996 11.45238 39167 ft 452 kts 154°
2026-04-26 11:35 46.09413 11.48870 39167 ft 453 kts 154°
2026-04-26 11:36 46.02949 11.53977 39162 ft 453 kts 154°
2026-04-26 11:36 45.97430 11.58327 39158 ft 452 kts 154°
2026-04-26 11:37 45.91918 11.62662 39143 ft 452 kts 154°
2026-04-26 11:37 45.86394 11.66996 39141 ft 452 kts 154°
2026-04-26 11:38 45.80877 11.71315 39145 ft 452 kts 154°
2026-04-26 11:38 45.75362 11.75623 39128 ft 452 kts 154°
2026-04-26 11:39 45.69839 11.79928 39112 ft 452 kts 154°
2026-04-26 11:39 45.64312 11.84225 39054 ft 453 kts 154°
2026-04-26 11:40 45.61549 11.86371 38733 ft 450 kts 154°
2026-04-26 11:40 45.58768 11.88526 37468 ft 461 kts 154°
2026-04-26 11:40 45.55916 11.90731 36437 ft 468 kts 153°
2026-04-26 11:40 45.53080 11.92928 36053 ft 460 kts 153°
2026-04-26 11:41 45.50293 11.95083 35675 ft 452 kts 153°
2026-04-26 11:42 45.31390 12.09622 32100 ft 431 kts 153°
2026-04-26 11:43 45.28726 12.11662 31616 ft 427 kts 153°
2026-04-26 11:43 45.26141 12.13641 31111 ft 418 kts 153°
2026-04-26 11:43 45.23648 12.15546 30670 ft 407 kts 153°
2026-04-26 11:43 45.21163 12.17443 30280 ft 404 kts 153°
2026-04-26 11:44 45.18697 12.19324 29782 ft 402 kts 153°
2026-04-26 11:44 45.16237 12.21199 29299 ft 400 kts 153°
2026-04-26 11:44 45.13799 12.23056 28871 ft 396 kts 152°
2026-04-26 11:44 45.11378 12.24898 28443 ft 393 kts 152°
2026-04-26 11:45 45.08978 12.26723 28037 ft 390 kts 153°
2026-04-26 11:45 45.06606 12.28579 27598 ft 389 kts 150°
2026-04-26 11:45 45.04280 12.30520 27176 ft 387 kts 150°
2026-04-26 11:45 45.01971 12.32432 26815 ft 383 kts 150°
2026-04-26 11:46 44.99672 12.34325 26414 ft 381 kts 150°
2026-04-26 11:46 44.97385 12.36201 26029 ft 379 kts 150°
2026-04-26 11:46 44.95107 12.38068 25639 ft 378 kts 150°
2026-04-26 11:46 44.92838 12.39925 25248 ft 376 kts 150°
2026-04-26 11:47 44.90579 12.41772 24876 ft 375 kts 150°
2026-04-26 11:47 44.88327 12.43610 24493 ft 373 kts 150°
2026-04-26 11:47 44.86086 12.45439 24128 ft 372 kts 150°
2026-04-26 11:47 44.83848 12.47264 23751 ft 371 kts 150°
2026-04-26 11:48 44.81619 12.49080 23317 ft 370 kts 149°
2026-04-26 11:48 44.79396 12.50893 22900 ft 368 kts 149°
2026-04-26 11:48 44.77183 12.52701 22473 ft 367 kts 149°
2026-04-26 11:48 44.74986 12.54493 22127 ft 363 kts 149°
2026-04-26 11:49 44.72812 12.56265 21784 ft 360 kts 149°
2026-04-26 11:49 44.70651 12.58025 21437 ft 357 kts 149°
2026-04-26 11:49 44.68508 12.59769 21057 ft 355 kts 149°
2026-04-26 11:49 44.66378 12.61501 20715 ft 353 kts 149°
2026-04-26 11:50 44.64259 12.63221 20365 ft 350 kts 149°
2026-04-26 11:50 44.62154 12.64930 20016 ft 348 kts 149°
2026-04-26 11:50 44.60061 12.66627 19665 ft 346 kts 149°
2026-04-26 11:50 44.57984 12.68310 19325 ft 344 kts 149°
2026-04-26 11:51 44.55911 12.69988 18981 ft 343 kts 149°
2026-04-26 11:51 44.53878 12.71628 18623 ft 342 kts 149°
2026-04-26 11:51 44.51815 12.73288 18252 ft 341 kts 149°
2026-04-26 11:51 44.49765 12.74936 17861 ft 339 kts 149°
2026-04-26 11:52 44.47734 12.76569 17538 ft 335 kts 149°
2026-04-26 11:52 44.46366 12.77667 17272 ft 335 kts 149°
2026-04-26 11:52 44.43684 12.79819 16744 ft 333 kts 149°
2026-04-26 11:52 44.41679 12.81426 16377 ft 332 kts 149°
2026-04-26 11:53 44.39688 12.83021 16055 ft 329 kts 149°
2026-04-26 11:53 44.37711 12.84603 15739 ft 326 kts 149°
2026-04-26 11:53 44.35749 12.86172 15413 ft 323 kts 149°
2026-04-26 11:54 44.31856 12.89291 14677 ft 322 kts 149°
2026-04-26 11:54 44.29918 12.90845 14370 ft 319 kts 149°
2026-04-26 11:54 44.27999 12.92381 14072 ft 317 kts 149°
2026-04-26 11:54 44.26093 12.93906 13734 ft 315 kts 149°
2026-04-26 11:55 44.24199 12.95421 13379 ft 313 kts 149°
2026-04-26 11:55 44.22320 12.96922 13046 ft 310 kts 149°
2026-04-26 11:55 44.20455 12.98411 12725 ft 307 kts 149°
2026-04-26 11:55 44.18609 12.99884 12422 ft 305 kts 149°
2026-04-26 11:56 44.16776 13.01345 12112 ft 302 kts 149°
2026-04-26 11:56 44.14960 13.02792 11799 ft 300 kts 149°
2026-04-26 11:56 44.13156 13.04227 11492 ft 297 kts 149°
2026-04-26 11:56 44.11366 13.05651 11188 ft 295 kts 149°
2026-04-26 11:57 44.09592 13.07061 10911 ft 291 kts 149°
2026-04-26 11:57 44.07872 13.08427 10669 ft 279 kts 149°
2026-04-26 11:57 44.06765 13.09306 10457 ft 274 kts 149°
2026-04-26 11:57 44.05152 13.10585 10192 ft 258 kts 149°
2026-04-26 11:58 44.03650 13.11775 10057 ft 239 kts 149°
2026-04-26 11:58 44.02261 13.12876 9855 ft 223 kts 148°
2026-04-26 11:58 44.00952 13.13912 9592 ft 210 kts 148°
2026-04-26 11:58 43.99717 13.14889 9346 ft 198 kts 148°
2026-04-26 11:59 43.98548 13.15815 9119 ft 193 kts 149°
2026-04-26 11:59 43.97359 13.16756 8984 ft 200 kts 149°
2026-04-26 11:59 43.96139 13.17721 8828 ft 203 kts 149°
2026-04-26 11:59 43.94979 13.18816 8607 ft 201 kts 141°
2026-04-26 12:00 43.93863 13.20006 8265 ft 203 kts 141°
2026-04-26 12:00 43.92738 13.21196 7888 ft 204 kts 142°
2026-04-26 12:00 43.91603 13.22387 7480 ft 205 kts 142°
2026-04-26 12:00 43.90457 13.23581 7106 ft 207 kts 142°
2026-04-26 12:01 43.89301 13.24780 6720 ft 208 kts 142°
2026-04-26 12:01 43.88135 13.25984 6328 ft 210 kts 143°
2026-04-26 12:01 43.86967 13.27190 5972 ft 208 kts 143°
2026-04-26 12:01 43.85813 13.28379 5665 ft 204 kts 143°
2026-04-26 12:02 43.84698 13.29527 5477 ft 195 kts 143°
2026-04-26 12:02 43.83656 13.30691 5406 ft 192 kts 130°
2026-04-26 12:02 43.83130 13.32345 5286 ft 190 kts 94°
2026-04-26 12:02 43.83176 13.34174 5295 ft 191 kts 83°
2026-04-26 12:03 43.83307 13.36010 5329 ft 191 kts 83°
2026-04-26 12:03 43.83449 13.37836 5273 ft 191 kts 82°
2026-04-26 12:03 43.83597 13.39630 5056 ft 189 kts 82°
2026-04-26 12:03 43.83752 13.41458 4781 ft 188 kts 82°
2026-04-26 12:04 43.83907 13.43229 4501 ft 187 kts 82°
2026-04-26 12:04 43.84066 13.45014 4223 ft 186 kts 82°
2026-04-26 12:04 43.84229 13.46815 3943 ft 186 kts 82°
2026-04-26 12:04 43.84391 13.48589 3663 ft 185 kts 82°
2026-04-26 12:05 43.84533 13.50361 3376 ft 185 kts 89°
2026-04-26 12:05 43.84154 13.52037 3011 ft 185 kts 126°
2026-04-26 12:05 43.83308 13.53366 2854 ft 185 kts 133°
2026-04-26 12:05 43.82424 13.54652 2856 ft 181 kts 134°
2026-04-26 12:06 43.81581 13.55860 2883 ft 170 kts 134°
2026-04-26 12:06 43.80768 13.57012 2909 ft 165 kts 134°
2026-04-26 12:06 43.79943 13.58102 2875 ft 164 kts 146°
2026-04-26 12:06 43.78872 13.58529 2718 ft 161 kts 185°
2026-04-26 12:07 43.77834 13.58052 2675 ft 158 kts 216°
2026-04-26 12:07 43.76989 13.57079 2670 ft 158 kts 224°
2026-04-26 12:07 43.76180 13.56045 2610 ft 158 kts 224°
2026-04-26 12:07 43.75379 13.55002 2538 ft 158 kts 225°
2026-04-26 12:08 43.74587 13.53954 2485 ft 158 kts 225°
2026-04-26 12:08 43.73800 13.52898 2470 ft 158 kts 226°
2026-04-26 12:08 43.73014 13.51839 2476 ft 158 kts 225°
2026-04-26 12:08 43.72224 13.50785 2474 ft 158 kts 226°
2026-04-26 12:09 43.71441 13.49719 2436 ft 158 kts 226°
2026-04-26 12:09 43.70672 13.48667 2219 ft 153 kts 226°
2026-04-26 12:09 43.69923 13.47636 2048 ft 152 kts 227°
2026-04-26 12:09 43.69177 13.46610 1862 ft 151 kts 227°
2026-04-26 12:10 43.68433 13.45584 1665 ft 151 kts 226°
2026-04-26 12:10 43.67688 13.44559 1469 ft 152 kts 226°
2026-04-26 12:10 43.66941 13.43530 1270 ft 152 kts 226°
2026-04-26 12:10 43.66192 13.42499 1079 ft 152 kts 227°
2026-04-26 12:11 43.65442 13.41466 884 ft 152 kts 226°
2026-04-26 12:11 43.64687 13.40430 676 ft 154 kts 226°
2026-04-26 12:11 43.63926 13.39383 495 ft 155 kts 225°
2026-04-26 12:11 43.63168 13.38323 268 ft 155 kts 225°
2026-04-26 12:12 43.62404 13.37281 70 ft 155 kts 225°
2026-04-26 12:12 43.61711 13.36337 55 ft 112 kts 225°
2026-04-26 12:12 43.61304 13.35781 56 ft 65 kts 224°
2026-04-26 12:12 43.61170 13.35598 62 ft 27 kts 223°
2026-04-26 12:13 43.61034 13.35558 66 ft 0 kts 179°
2026-04-26 12:14 43.61033 13.35558 66 ft 0 kts 179°
2026-04-26 12:14 43.61008 13.35559 64 ft 8 kts 179°
2026-04-26 12:14 43.60935 13.35567 61 ft 10 kts 149°
2026-04-26 12:14 43.60900 13.35613 63 ft 1 kts 135°
2026-04-26 12:15 43.60893 13.35622 65 ft 2 kts 135°
2026-04-26 12:15 43.60892 13.35624 65 ft 0 kts 134°